Погода в Веркендаме

Нидерланды     51°48′28″N   4°53′55″E
темп.,
°C
ветер,
м/с
пор.,
м/с
влажн.,
%
обл.,
%
осадки,
мм/ч
давл.,
гПа
погр.,
м
17 июня, чт
чт1723:00+20св22720 0.0 101113
02:00+20вюв347211 0.0 101044
05:00+19юв34675 0.0 100948
08:00+21ююз5118999 1.2 1010389
11:00+24ю237290 0.0 1009419
14:00+28юз57577 0.0 10111568
17:00+29з35535 0.0 10111654
20:00+27ссз237126 0.0 1011160
18 июня, пт
пт1823:00+20св4987100 0.0 1013200
02:00+18св3795100 0.7 1012134
05:00+18св2398100 0.3 101265
08:00+20ююз1397100 2.1 1012165
11:00+22зюз128693 0.1 1012515
14:00+28ююз266013 0.8 10111393
17:00+29ю7105626 1.2 10092110
20:00+25ююз712644 1.3 1010944
19 июня, сб
сб1923:00+19ююз8148481 0.0 1011720
02:00+17юз71286100 0.0 1013715
05:00+15зюз71088100 0.0 1015794
08:00+15з6983100 0.0 1017648
11:00+16зсз4576100 0.0 1018814
14:00+20сз226493 0.0 10181109
17:00+22вюв22585 0.0 10161226
20:00+21всв357021 0.0 1015489
20 июня, вс
вс2023:00+17всв511825 0.0 1013263
02:00+16всв71479100 0.0 1011389
05:00+15в8159698 2.9 1006343
08:00+18вюв81694100 7.8 1003559
11:00+22ююз71280100 0.2 10041075
14:00+23ю91276100 0.9 10051097
17:00+23ююз697511 0.9 10061175
20:00+22ююз37801 2.9 1005439
21 июня, пн
пн2123:00+17юз3593100 0.8 100689
02:00+17юз3697100 1.1 1007133
05:00+16юз379698 0.0 1007153
08:00+17юз478875 0.0 1008375
11:00+21ююз4563100 0.0 10091000
14:00+24ююз465098 0.0 10092317
17:00+23ююв3661100 0.0 1008591
20:00+21ююз4872100 0.3 1007267